Date String (YYYY-MM-DD hh:mm:ss) UTC,Instrument flags,Ambient pressure (hPa),Sample flow (lpm),Bypass flow (lpm),Sample temperature (°C),Ambient temperature (°C),ASC tube jacket temperature (°C),LED temperature (°C),Box temperature (°C),Sample RH (%),Span deviation,Mass concentration (μg/m³),Mass concentration (μg/m³),Mass concentration (μg/m³)
DateTimeUTC,F1_M11,P_M11,Q1_M11,Q2_M11,T1_M11,T2_M11,T3_M11,T4_M11,T5_M11,U1_M11,ZSPAN_M11,X0_M11,X2_M11,X1_M11
2022-05-18 21:00:00,,0824.2,5.01,0.00,29.5,28.6,00.0,38.3,31.5,09.1,0000.0,0008.96,0003.39,0001.85
2022-05-18 21:01:00,,0824.2,4.99,0.00,29.6,28.7,00.0,38.3,31.5,08.8,0000.0,0009.23,0003.39,0001.86
2022-05-18 21:02:00,,0824.2,5.00,0.00,29.5,28.0,00.0,38.2,31.3,08.5,0000.0,0008.62,0003.37,0001.86
2022-05-18 21:03:00,,0824.2,5.00,0.00,29.4,27.2,00.0,38.2,31.1,08.2,0000.0,0008.51,0003.35,0001.85
2022-05-18 21:04:00,,0824.2,5.00,0.00,29.4,27.1,00.0,38.2,31.1,08.0,0000.0,0008.11,0003.28,0001.83
2022-05-18 21:05:00,,0824.2,4.99,0.00,29.3,27.2,00.0,38.2,31.1,08.1,0000.0,0007.85,0003.29,0001.83
2022-05-18 21:06:00,,0824.1,5.00,0.00,29.3,27.4,00.0,38.2,31.1,08.4,0000.0,0007.87,0003.30,0001.82
2022-05-18 21:07:00,,0824.0,5.00,0.00,29.3,27.5,00.0,38.2,31.1,07.6,0000.0,0007.77,0003.28,0001.83
2022-05-18 21:08:00,,0824.0,5.00,0.00,29.3,27.7,00.0,38.2,31.2,07.5,0000.0,0007.81,0003.28,0001.81
2022-05-18 21:09:00,,0824.1,5.01,0.00,29.3,27.9,00.0,38.2,31.2,07.3,0000.0,0007.93,0003.23,0001.78
2022-05-18 21:10:00,,0824.1,4.99,0.00,29.4,28.1,00.0,38.2,31.3,07.7,0000.0,0007.85,0003.19,0001.77
2022-05-18 21:11:00,,0824.1,5.00,0.00,29.4,28.3,00.0,38.2,31.3,07.5,0000.0,0007.39,0003.17,0001.77
2022-05-18 21:12:00,,0824.1,5.01,0.00,29.4,28.5,00.0,38.2,31.4,08.3,0000.0,0006.99,0003.17,0001.77
2022-05-18 21:13:00,,0824.1,4.99,0.00,29.5,28.6,00.0,38.3,31.5,08.0,0000.0,0007.08,0003.19,0001.78
2022-05-18 21:14:00,,0824.1,5.02,0.00,29.5,28.7,00.0,38.3,31.5,08.3,0000.0,0007.15,0003.21,0001.78
2022-05-18 21:15:00,,0824.2,5.00,0.00,29.5,28.3,00.0,38.3,31.4,08.1,0000.0,0007.30,0003.26,0001.80
2022-05-18 21:16:00,,0824.2,5.00,0.00,29.5,27.4,00.0,38.2,31.1,08.1,0000.0,0006.92,0003.23,0001.79
2022-05-18 21:17:00,,0824.2,4.99,0.00,29.4,27.1,00.0,38.2,31.0,08.3,0000.0,0007.00,0003.25,0001.79
2022-05-18 21:18:00,,0824.1,5.00,0.00,29.3,27.2,00.0,38.2,31.0,08.3,0000.0,0007.32,0003.31,0001.80
2022-05-18 21:19:00,,0824.1,5.00,0.00,29.3,27.3,00.0,38.2,31.0,08.3,0000.0,0007.51,0003.32,0001.82
2022-05-18 21:20:00,,0824.1,5.01,0.00,29.3,27.5,00.0,38.2,31.1,08.2,0000.0,0007.19,0003.32,0001.84
2022-05-18 21:21:00,,0824.1,5.00,0.00,29.3,27.7,00.0,38.2,31.1,08.0,0000.0,0007.23,0003.33,0001.83
2022-05-18 21:22:00,,0824.1,4.99,0.00,29.3,27.9,00.0,38.2,31.2,07.7,0000.0,0007.46,0003.35,0001.83
2022-05-18 21:23:00,,0824.1,5.01,0.00,29.4,28.1,00.0,38.2,31.3,07.7,0000.0,0007.87,0003.35,0001.81
2022-05-18 21:24:00,,0824.1,5.00,0.00,29.4,28.2,00.0,38.2,31.3,07.9,0000.0,0007.97,0003.34,0001.79
2022-05-18 21:25:00,,0824.1,5.00,0.00,29.4,28.4,00.0,38.2,31.4,08.4,0000.0,0008.28,0003.36,0001.81
2022-05-18 21:26:00,,0824.1,5.00,0.00,29.5,28.5,00.0,38.2,31.4,08.2,0000.0,0008.47,0003.41,0001.81
2022-05-18 21:27:00,,0824.1,5.00,0.00,29.5,28.7,00.0,38.3,31.5,08.4,0000.0,0008.72,0003.46,0001.81
2022-05-18 21:28:00,,0824.0,5.00,0.00,29.5,28.5,00.0,38.3,31.5,08.3,0000.0,0008.67,0003.46,0001.81
2022-05-18 21:29:00,,0824.1,5.02,0.00,29.5,27.7,00.0,38.2,31.2,08.4,0000.0,0008.69,0003.45,0001.81
2022-05-18 21:30:00,,0824.1,5.00,0.00,29.4,27.2,00.0,38.2,31.1,08.8,0000.0,0008.54,0003.47,0001.80
2022-05-18 21:31:00,,0824.0,5.00,0.00,29.4,27.1,00.0,38.2,31.0,08.5,0000.0,0008.86,0003.57,0001.80
2022-05-18 21:32:00,,0824.0,5.00,0.00,29.3,27.2,00.0,38.1,31.0,08.3,0000.0,0009.18,0003.63,0001.82
2022-05-18 21:33:00,,0824.0,5.01,0.00,29.3,27.4,00.0,38.1,31.1,08.1,0000.0,0009.44,0003.68,0001.83
2022-05-18 21:34:00,,0824.1,5.00,0.00,29.3,27.6,00.0,38.2,31.1,07.9,0000.0,0009.14,0003.73,0001.85
2022-05-18 21:35:00,,0824.1,5.00,0.00,29.3,27.8,00.0,38.2,31.2,07.5,0000.0,0009.01,0003.70,0001.87
2022-05-18 21:36:00,,0824.0,5.00,0.00,29.3,28.0,00.0,38.2,31.2,08.2,0000.0,0008.86,0003.69,0001.88
2022-05-18 21:37:00,,0824.0,5.00,0.00,29.4,28.2,00.0,38.2,31.3,07.5,0000.0,0008.82,0003.64,0001.86
2022-05-18 21:38:00,,0824.0,5.03,0.00,29.4,28.3,00.0,38.2,31.4,07.9,0000.0,0009.59,0003.63,0001.87
2022-05-18 21:39:00,,0824.0,4.99,0.00,29.5,28.5,00.0,38.2,31.4,08.3,0000.0,0009.59,0003.63,0001.88
2022-05-18 21:40:00,,0823.9,5.01,0.00,29.5,28.6,00.0,38.2,31.5,08.3,0000.0,0009.51,0003.61,0001.88
2022-05-18 21:41:00,,0824.0,4.99,0.00,29.5,28.7,00.0,38.3,31.5,08.0,0000.0,0009.46,0003.58,0001.89
2022-05-18 21:42:00,,0824.0,5.00,0.00,29.6,28.5,00.0,38.3,31.4,08.2,0000.0,0009.21,0003.50,0001.88
2022-05-18 21:43:00,,0824.0,5.00,0.00,29.5,27.6,00.0,38.2,31.2,07.6,0000.0,0009.08,0003.51,0001.87
2022-05-18 21:44:00,,0824.0,5.01,0.00,29.4,27.1,00.0,38.2,31.1,07.3,0000.0,0008.73,0003.46,0001.85
2022-05-18 21:45:00,,0824.0,5.01,0.00,29.4,27.1,00.0,38.2,31.0,07.8,0000.0,0008.63,0003.41,0001.85
2022-05-18 21:46:00,,0823.9,5.00,0.00,29.3,27.2,00.0,38.1,31.0,08.4,0000.0,0008.63,0003.41,0001.86
2022-05-18 21:47:00,,0823.9,5.00,0.00,29.3,27.4,00.0,38.1,31.1,08.4,0000.0,0008.54,0003.42,0001.87
2022-05-18 21:48:00,,0823.9,5.00,0.00,29.3,27.6,00.0,38.2,31.1,08.2,0000.0,0008.34,0003.38,0001.87
2022-05-18 21:49:00,,0824.0,5.00,0.00,29.3,27.8,00.0,38.2,31.2,08.2,0000.0,0007.37,0003.37,0001.87
2022-05-18 21:50:00,,0824.0,5.00,0.00,29.4,28.0,00.0,38.2,31.3,07.8,0000.0,0007.42,0003.37,0001.88
2022-05-18 21:51:00,,0824.0,4.99,0.00,29.4,28.2,00.0,38.2,31.3,08.1,0000.0,0007.43,0003.38,0001.90
2022-05-18 21:52:00,,0824.0,5.01,0.00,29.4,28.4,00.0,38.2,31.4,08.4,0000.0,0007.45,0003.38,0001.91
2022-05-18 21:53:00,,0824.0,4.99,0.00,29.5,28.5,00.0,38.2,31.4,08.6,0000.0,0007.42,0003.37,0001.92
2022-05-18 21:54:00,,0823.9,5.00,0.00,29.5,28.6,00.0,38.3,31.5,08.4,0000.0,0007.12,0003.31,0001.94
2022-05-18 21:55:00,,0824.0,5.00,0.00,29.6,28.7,00.0,38.3,31.5,08.9,0000.0,0007.19,0003.33,0001.96
2022-05-18 21:56:00,,0824.0,5.00,0.00,29.6,28.4,00.0,38.3,31.5,08.5,0000.0,0007.40,0003.40,0001.96
2022-05-18 21:57:00,,0824.0,5.00,0.00,29.5,27.5,00.0,38.2,31.2,07.8,0000.0,0007.41,0003.43,0001.97
2022-05-18 21:58:00,,0823.9,4.99,0.00,29.4,27.2,00.0,38.2,31.1,07.9,0000.0,0007.51,0003.43,0001.96
2022-05-18 21:59:00,,0823.9,4.98,0.00,29.4,27.2,00.0,38.2,31.1,08.1,0000.0,0007.72,0003.50,0001.97
